| time (UTC) | temp C | wind direction | speed KPH | gust KPH | rain 1hr cm | rain 24hr cm | rain mn cm | humidity % | barometer mb |
| 20260507172436 | 13 | 295 | 0.0 | 3.2 | 0.00 | 0.00 | 0.00 | 67 | 1016.7 |
| 20260507171916 | 13 | 295 | 0.0 | 3.2 | 0.00 | 0.00 | 0.00 | 66 | 1016.7 |
| 20260507171427 | 13 | 264 | 0.0 | 1.6 | 0.00 | 0.00 | 0.00 | 65 | 1016.7 |
| 20260507170928 | 13 | 264 | 0.0 | 3.2 | 0.00 | 0.00 | 0.00 | 65 | 1016.7 |
| 20260507170411 | 13 | 271 | 0.0 | 3.2 | 0.00 | 0.00 | 0.00 | 66 | 1016.7 |
| 20260507165931 | 13 | 298 | 0.0 | 4.8 | 0.00 | 0.00 | 0.00 | 66 | 1016.7 |
| 20260507165412 | 13 | 276 | 1.6 | 4.8 | 0.00 | 0.00 | 0.00 | 64 | 1016.7 |
| 20260507164923 | 13 | 267 | 0.0 | 3.2 | 0.00 | 0.00 | 0.00 | 64 | 1016.7 |
| 20260507164431 | 13 | 282 | 1.6 | 3.2 | 0.00 | 0.00 | 0.00 | 65 | 1016.7 |
| 20260507163921 | 14 | 285 | 0.0 | 3.2 | 0.00 | 0.00 | 0.00 | 64 | 1016.7 |
| 20260507163413 | 14 | 269 | 0.0 | 3.2 | 0.00 | 0.00 | 0.00 | 64 | 1016.7 |
| 20260507162946 | 14 | 307 | 1.6 | 3.2 | 0.00 | 0.00 | 0.00 | 63 | 1016.7 |
| 20260507162433 | 14 | 295 | 0.0 | 3.2 | 0.00 | 0.00 | 0.00 | 63 | 1016.7 |
| 20260507161937 | 14 | 306 | 0.0 | 4.8 | 0.00 | 0.00 | 0.00 | 63 | 1016.7 |
| 20260507161418 | 14 | 283 | 1.6 | 4.8 | 0.00 | 0.00 | 0.00 | 62 | 1016.6 |
| 20260507160921 | 14 | 274 | 0.0 | 4.8 | 0.00 | 0.00 | 0.00 | 64 | 1016.7 |
| 20260507160429 | 14 | 333 | 0.0 | 4.8 | 0.00 | 0.00 | 0.00 | 63 | 1016.6 |
| 20260507155934 | 14 | 291 | 1.6 | 4.8 | 0.00 | 0.00 | 0.00 | 62 | 1016.7 |
| 20260507155414 | 14 | 354 | 0.0 | 4.8 | 0.00 | 0.00 | 0.00 | 63 | 1016.6 |
| 20260507154927 | 15 | 302 | 0.0 | 1.6 | 0.00 | 0.00 | 0.00 | 61 | 1016.7 |
| 20260507154421 | 15 | 18 | 0.0 | 3.2 | 0.00 | 0.00 | 0.00 | 60 | 1016.7 |
| 20260507153920 | 15 | 321 | 1.6 | 4.8 | 0.00 | 0.00 | 0.00 | 62 | 1016.7 |
| 20260507153459 | 15 | 281 | 1.6 | 4.8 | 0.00 | 0.00 | 0.00 | 60 | 1016.7 |
| 20260507152915 | 15 | 285 | 1.6 | 4.8 | 0.00 | 0.00 | 0.00 | 62 | 1016.6 |
| 20260507152429 | 15 | 295 | 1.6 | 4.8 | 0.00 | 0.00 | 0.00 | 62 | 1016.6 |
| 20260507151940 | 15 | 292 | 1.6 | 4.8 | 0.00 | 0.00 | 0.00 | 59 | 1016.6 |
| 20260507151441 | 15 | 290 | 1.6 | 6.4 | 0.00 | 0.00 | 0.00 | 59 | 1016.7 |
| 20260507150913 | 15 | 288 | 1.6 | 6.4 | 0.00 | 0.00 | 0.00 | 58 | 1016.6 |
| 20260507150440 | 15 | 266 | 0.0 | 3.2 | 0.00 | 0.00 | 0.00 | 58 | 1016.6 |
| 20260507145930 | 15 | 278 | 0.0 | 3.2 | 0.00 | 0.00 | 0.00 | 54 | 1016.6 |
| 20260507145413 | 15 | 278 | 0.0 | 1.6 | 0.00 | 0.00 | 0.00 | 55 | 1016.6 |
| 20260507144926 | 15 | 278 | 0.0 | 1.6 | 0.00 | 0.00 | 0.00 | 56 | 1016.6 |
| 20260507144429 | 15 | 250 | 0.0 | 0.0 | 0.00 | 0.00 | 0.00 | 57 | 1016.6 |
| 20260507143928 | 15 | 250 | 0.0 | 1.6 | 0.00 | 0.00 | 0.00 | 55 | 1016.6 |
| 20260507143443 | 15 | 250 | 1.6 | 1.6 | 0.00 | 0.00 | 0.00 | 56 | 1016.6 |
| 20260507142930 | 15 | 298 | 0.0 | 1.6 | 0.00 | 0.00 | 0.00 | 60 | 1016.6 |
| 20260507142437 | 15 | 298 | 0.0 | 1.6 | 0.00 | 0.00 | 0.00 | 58 | 1016.6 |
| 20260507141920 | 15 | 316 | 0.0 | 0.0 | 0.00 | 0.00 | 0.00 | 56 | 1016.6 |
| 20260507141414 | 15 | 316 | 0.0 | 0.0 | 0.00 | 0.00 | 0.00 | 57 | 1016.7 |
| 20260507140936 | 15 | 316 | 0.0 | 0.0 | 0.00 | 0.00 | 0.00 | 61 | 1016.7 |
| 20260507140436 | 15 | 316 | 0.0 | 0.0 | 0.00 | 0.00 | 0.00 | 59 | 1016.7 |
| 20260507135950 | 15 | 316 | 0.0 | 1.6 | 0.00 | 0.00 | 0.00 | 55 | 1016.7 |
| 20260507135411 | 15 | 263 | 0.0 | 1.6 | 0.00 | 0.00 | 0.00 | 56 | 1016.7 |
| 20260507134923 | 15 | 263 | 0.0 | 1.6 | 0.00 | 0.00 | 0.00 | 55 | 1016.8 |
| 20260507134427 | 15 | 304 | 0.0 | 0.0 | 0.00 | 0.00 | 0.00 | 52 | 1016.8 |
| 20260507133922 | 16 | 304 | 0.0 | 0.0 | 0.00 | 0.00 | 0.00 | 56 | 1016.8 |
| 20260507133424 | 16 | 304 | 0.0 | 0.0 | 0.00 | 0.00 | 0.00 | 55 | 1016.8 |
| 20260507132932 | 15 | 304 | 0.0 | 0.0 | 0.00 | 0.00 | 0.00 | 61 | 1016.8 |
| 20260507132415 | 15 | 304 | 0.0 | 0.0 | 0.00 | 0.00 | 0.00 | 57 | 1016.8 |
| 20260507131925 | 15 | 304 | 0.0 | 0.0 | 0.00 | 0.00 | 0.00 | 55 | 1016.7 |
| 20260507131437 | 15 | 304 | 0.0 | 0.0 | 0.00 | 0.00 | 0.00 | 58 | 1016.8 |
| 20260507130921 | 15 | 304 | 0.0 | 0.0 | 0.00 | 0.00 | 0.00 | 53 | 1016.8 |
| 20260507130425 | 15 | 304 | 0.0 | 0.0 | 0.00 | 0.00 | 0.00 | 57 | 1016.8 |
| 20260507125934 | 15 | 304 | 0.0 | 3.2 | 0.00 | 0.00 | 0.00 | 56 | 1016.8 |
| 20260507125419 | 15 | 278 | 1.6 | 3.2 | 0.00 | 0.00 | 0.00 | 52 | 1016.7 |
| 20260507124924 | 15 | 119 | 0.0 | 1.6 | 0.00 | 0.00 | 0.00 | 55 | 1016.8 |
| 20260507124434 | 15 | 119 | 1.6 | 1.6 | 0.00 | 0.00 | 0.00 | 56 | 1016.7 |
| 20260507123936 | 15 | 204 | 0.0 | 1.6 | 0.00 | 0.00 | 0.00 | 59 | 1016.8 |
| 20260507123426 | 15 | 204 | 0.0 | 4.8 | 0.00 | 0.00 | 0.00 | 58 | 1016.7 |
| 20260507122937 | 15 | 236 | 1.6 | 4.8 | 0.00 | 0.00 | 0.00 | 54 | 1016.7 |
| 20260507122426 | 15 | 330 | 0.0 | 4.8 | 0.00 | 0.00 | 0.00 | 55 | 1016.7 |
| 20260507121935 | 15 | 330 | 0.0 | 4.8 | 0.00 | 0.00 | 0.00 | 57 | 1016.7 |
| 20260507121418 | 15 | 228 | 0.0 | 1.6 | 0.00 | 0.00 | 0.00 | 56 | 1016.7 |
| 20260507120930 | 15 | 246 | 0.0 | 3.2 | 0.00 | 0.00 | 0.00 | 61 | 1016.7 |
| 20260507120431 | 15 | 250 | 0.0 | 3.2 | 0.00 | 0.00 | 0.00 | 56 | 1016.7 |
| 20260507115914 | 15 | 265 | 0.0 | 4.8 | 0.00 | 0.00 | 0.00 | 57 | 1016.7 |
| 20260507115446 | 15 | 320 | 1.6 | 4.8 | 0.00 | 0.00 | 0.00 | 57 | 1016.7 |
| 20260507114919 | 15 | 229 | 0.0 | 3.2 | 0.00 | 0.00 | 0.00 | 56 | 1016.7 |
| 20260507114423 | 15 | 259 | 0.0 | 3.2 | 0.00 | 0.00 | 0.00 | 56 | 1016.7 |
| 20260507113913 | 15 | 261 | 0.0 | 3.2 | 0.00 | 0.00 | 0.00 | 59 | 1016.7 |
| 20260507113443 | 15 | 301 | 0.0 | 3.2 | 0.00 | 0.00 | 0.00 | 57 | 1016.7 |
| 20260507112929 | 15 | 261 | 0.0 | 1.6 | 0.00 | 0.00 | 0.00 | 60 | 1016.7 |
| 20260507112414 | 15 | 261 | 0.0 | 1.6 | 0.00 | 0.00 | 0.00 | 61 | 1016.7 |
| 20260507111927 | 15 | 287 | 0.0 | 1.6 | 0.00 | 0.00 | 0.00 | 58 | 1016.7 |
| 20260507111438 | 15 | 287 | 0.0 | 1.6 | 0.00 | 0.00 | 0.00 | 59 | 1016.7 |
| 20260507110915 | 15 | 300 | 0.0 | 3.2 | 0.00 | 0.00 | 0.00 | 59 | 1016.8 |
| 20260507110422 | 15 | 304 | 1.6 | 3.2 | 0.00 | 0.00 | 0.00 | 60 | 1016.8 |
| 20260507105936 | 15 | 214 | 0.0 | 6.4 | 0.00 | 0.00 | 0.00 | 60 | 1016.9 |
| 20260507105417 | 15 | 290 | 0.0 | 6.4 | 0.00 | 0.00 | 0.00 | 61 | 1016.8 |
| 20260507104930 | 15 | 277 | 0.0 | 0.0 | 0.00 | 0.00 | 0.00 | 67 | 1016.8 |
| 20260507104422 | 14 | 277 | 0.0 | 0.0 | 0.00 | 0.00 | 0.00 | 65 | 1016.8 |
| 20260507103953 | 14 | 277 | 0.0 | 0.0 | 0.00 | 0.00 | 0.00 | 62 | 1016.9 |
| 20260507103440 | 14 | 277 | 0.0 | 1.6 | 0.00 | 0.00 | 0.00 | 65 | 1016.9 |
| 20260507102921 | 13 | 277 | 0.0 | 4.8 | 0.00 | 0.00 | 0.00 | 64 | 1016.9 |
| 20260507102410 | 13 | 277 | 1.6 | 6.4 | 0.00 | 0.00 | 0.00 | 64 | 1016.9 |
| 20260507101921 | 13 | 267 | 0.0 | 4.8 | 0.00 | 0.00 | 0.00 | 64 | 1017.0 |
| 20260507101424 | 13 | 245 | 1.6 | 4.8 | 0.00 | 0.00 | 0.00 | 66 | 1016.9 |
| 20260507100915 | 13 | 264 | 3.2 | 4.8 | 0.00 | 0.00 | 0.00 | 67 | 1016.9 |
| 20260507100417 | 13 | 316 | 0.0 | 4.8 | 0.00 | 0.00 | 0.00 | 66 | 1016.9 |
| 20260507095951 | 13 | 193 | 0.0 | 4.8 | 0.00 | 0.00 | 0.00 | 68 | 1016.9 |
| 20260507095441 | 13 | 302 | 0.0 | 3.2 | 0.00 | 0.00 | 0.00 | 69 | 1016.9 |
| 20260507094925 | 13 | 192 | 0.0 | 0.0 | 0.00 | 0.00 | 0.00 | 71 | 1016.9 |
| 20260507094420 | 13 | 192 | 0.0 | 3.2 | 0.00 | 0.00 | 0.00 | 72 | 1016.9 |
| 20260507093933 | 13 | 192 | 0.0 | 3.2 | 0.00 | 0.00 | 0.00 | 72 | 1016.9 |
| 20260507093416 | 13 | 321 | 0.0 | 3.2 | 0.00 | 0.00 | 0.00 | 74 | 1016.9 |
| 20260507092927 | 13 | 259 | 0.0 | 0.0 | 0.00 | 0.00 | 0.00 | 77 | 1016.9 |
| 20260507092420 | 12 | 259 | 0.0 | 4.8 | 0.00 | 0.00 | 0.00 | 75 | 1016.8 |
| 20260507091911 | 12 | 259 | 1.6 | 4.8 | 0.00 | 0.00 | 0.00 | 73 | 1016.8 |
| 20260507091420 | 12 | 285 | 1.6 | 4.8 | 0.00 | 0.00 | 0.00 | 73 | 1016.8 |
| 20260507090947 | 12 | 308 | 0.0 | 1.6 | 0.00 | 0.00 | 0.00 | 75 | 1016.8 |
| 20260507090435 | 12 | 259 | 0.0 | 1.6 | 0.00 | 0.00 | 0.00 | 76 | 1016.8 |
| 20260507085915 | 12 | 259 | 0.0 | 4.8 | 0.00 | 0.00 | 0.00 | 78 | 1016.8 |
| 20260507085422 | 12 | 275 | 1.6 | 4.8 | 0.00 | 0.00 | 0.00 | 78 | 1016.7 |
| 20260507084934 | 12 | 278 | 1.6 | 4.8 | 0.00 | 0.00 | 0.00 | 76 | 1016.7 |
| 20260507084414 | 12 | 278 | 0.0 | 4.8 | 0.00 | 0.00 | 0.00 | 78 | 1016.7 |
| 20260507083923 | 12 | 299 | 1.6 | 4.8 | 0.00 | 0.00 | 0.00 | 77 | 1016.6 |
| 20260507083453 | 12 | 283 | 0.0 | 4.8 | 0.00 | 0.00 | 0.00 | 79 | 1016.7 |
| 20260507082912 | 12 | 239 | 1.6 | 3.2 | 0.00 | 0.00 | 0.00 | 78 | 1016.6 |
| 20260507082422 | 11 | 219 | 0.0 | 3.2 | 0.00 | 0.00 | 0.00 | 80 | 1016.6 |
| 20260507081913 | 11 | 298 | 0.0 | 3.2 | 0.00 | 0.00 | 0.00 | 81 | 1016.6 |
| 20260507081412 | 11 | 293 | 0.0 | 0.0 | 0.00 | 0.00 | 0.00 | 80 | 1016.6 |
| 20260507080924 | 11 | 294 | 0.0 | 1.6 | 0.00 | 0.00 | 0.00 | 81 | 1016.7 |
| 20260507080418 | 11 | 239 | 0.0 | 3.2 | 0.00 | 0.00 | 0.00 | 82 | 1016.6 |
| 20260507075945 | 11 | 281 | 1.6 | 3.2 | 0.00 | 0.00 | 0.00 | 83 | 1016.5 |
| 20260507075437 | 11 | 263 | 0.0 | 4.8 | 0.00 | 0.10 | 0.00 | 82 | 1016.5 |
| 20260507074921 | 11 | 173 | 0.0 | 4.8 | 0.00 | 0.10 | 0.00 | 82 | 1016.5 |
| 20260507074413 | 11 | 300 | 0.0 | 3.2 | 0.00 | 0.10 | 0.00 | 83 | 1016.4 |
| 20260507073919 | 10 | 264 | 0.0 | 4.8 | 0.00 | 0.10 | 0.00 | 83 | 1016.3 |
| 20260507073414 | 10 | 295 | 1.6 | 4.8 | 0.00 | 0.10 | 0.00 | 83 | 1016.4 |
| 20260507072947 | 10 | 262 | 0.0 | 6.4 | 0.00 | 0.10 | 0.00 | 83 | 1016.4 |
| 20260507072437 | 10 | 280 | 0.0 | 6.4 | 0.00 | 0.10 | 0.00 | 84 | 1016.3 |
| 20260507071927 | 10 | 269 | 0.0 | 1.6 | 0.00 | 0.10 | 0.00 | 84 | 1016.2 |
| 20260507071428 | 10 | 4 | 0.0 | 1.6 | 0.00 | 0.10 | 0.00 | 83 | 1016.1 |
| 20260507070939 | 10 | 215 | 0.0 | 1.6 | 0.00 | 0.10 | 0.00 | 84 | 1016.2 |
| 20260507070418 | 10 | 310 | 0.0 | 1.6 | 0.00 | 0.10 | 0.00 | 84 | 1016.1 |
| 20260507065931 | 10 | 304 | 0.0 | 3.2 | 0.00 | 0.10 | 0.00 | 84 | 1016.1 |
| 20260507065424 | 10 | 295 | 0.0 | 3.2 | 0.00 | 0.10 | 0.00 | 85 | 1016.1 |
| 20260507064912 | 10 | 219 | 0.0 | 3.2 | 0.00 | 0.10 | 0.00 | 85 | 1016.1 |
| 20260507064431 | 10 | 297 | 0.0 | 3.2 | 0.00 | 0.10 | 0.00 | 85 | 1016.0 |
| 20260507063930 | 10 | 187 | 0.0 | 1.6 | 0.00 | 0.10 | 0.00 | 85 | 1016.1 |
| 20260507063418 | 9 | 187 | 0.0 | 1.6 | 0.00 | 0.10 | 0.00 | 85 | 1016.0 |
| 20260507062931 | 9 | 187 | 0.0 | 1.6 | 0.00 | 0.10 | 0.00 | 85 | 1016.0 |
| 20260507062416 | 9 | 202 | 0.0 | 1.6 | 0.00 | 0.10 | 0.00 | 85 | 1016.0 |
| 20260507061929 | 9 | 160 | 0.0 | 1.6 | 0.00 | 0.10 | 0.00 | 86 | 1016.0 |
| 20260507061409 | 9 | 160 | 0.0 | 0.0 | 0.00 | 0.10 | 0.00 | 87 | 1015.9 |
| 20260507060923 | 8 | 160 | 0.0 | 0.0 | 0.00 | 0.10 | 0.00 | 87 | 1015.9 |
| 20260507060425 | 8 | 160 | 0.0 | 0.0 | 0.00 | 0.10 | 0.00 | 87 | 1015.8 |
| 20260507055932 | 8 | 160 | 0.0 | 0.0 | 0.00 | 0.10 | 0.00 | 88 | 1015.8 |
| 20260507055415 | 8 | 160 | 0.0 | 0.0 | 0.00 | 0.10 | 0.00 | 88 | 1015.8 |
| 20260507054928 | 8 | 160 | 0.0 | 0.0 | 0.00 | 0.10 | 0.00 | 88 | 1015.7 |
| 20260507054441 | 8 | 160 | 0.0 | 0.0 | 0.00 | 0.10 | 0.00 | 88 | 1015.6 |
| 20260507053924 | 8 | 160 | 0.0 | 0.0 | 0.00 | 0.10 | 0.00 | 88 | 1015.6 |
| 20260507053417 | 8 | 160 | 526.3 | 0.0 | 0.00 | 0.10 | 0.00 | 88 | 1015.5 |
| 20260507052930 | -17 | 0.0 | 0.0 | 0.00 | 0.10 | 0.00 | 1015.5 | ||
| 20260507052425 | -17 | 0.0 | 0.0 | 0.00 | 0.10 | 0.00 | 1015.4 | ||
| 20260507051950 | -17 | 0.0 | 0.0 | 0.00 | 0.10 | 0.00 | 1015.5 | ||
| 20260507051423 | -17 | 0.0 | 0.0 | 0.00 | 0.10 | 0.00 | 1015.5 | ||
| 20260507050430 | -17 | 0.0 | 0.0 | 0.00 | 0.10 | 0.00 | 1015.3 | ||
| 20260507045921 | -17 | 0.0 | 0.0 | 0.00 | 0.10 | 0.00 | 1015.3 | ||
| 20260507045421 | -17 | 0.0 | 0.0 | 0.00 | 0.10 | 0.00 | 1015.3 | ||
| 20260507044915 | -17 | 0.0 | 0.0 | 0.00 | 0.10 | 0.00 | 1015.2 | ||
| 20260507044534 | -17 | 0.0 | 0.0 | 0.00 | 0.10 | 0.00 | 1015.2 | ||
| 20260507043919 | -17 | 0.0 | 0.0 | 0.00 | 0.10 | 0.00 | 1015.1 | ||
| 20260507043412 | -17 | 0.0 | 0.0 | 0.00 | 0.10 | 0.00 | 1015.1 | ||
| 20260507042915 | -17 | 0.0 | 0.0 | 0.00 | 0.10 | 0.00 | 1015.1 | ||
| 20260507041922 | 7 | 155 | 0.0 | 0.0 | 0.00 | 0.10 | 0.00 | 87 | 1015.0 |
| 20260507041413 | 8 | 160 | 0.0 | 0.0 | 0.00 | 0.10 | 0.00 | 88 | 1015.0 |
| 20260507040429 | 8 | 160 | 0.0 | 0.0 | 0.00 | 0.10 | 0.00 | 88 | 1015.0 |
| 20260507040000 | 8 | 160 | 0.0 | 0.0 | 0.00 | 0.10 | 0.00 | 88 | 1015.0 |
| 20260507035422 | 8 | 160 | 0.0 | 1.6 | 0.00 | 0.10 | 0.00 | 88 | 1014.9 |
| 20260507034915 | 8 | 160 | 0.0 | 1.6 | 0.00 | 0.10 | 0.00 | 88 | 1014.9 |
| 20260507034428 | 8 | 131 | 0.0 | 1.6 | 0.00 | 0.10 | 0.00 | 88 | 1014.9 |
| 20260507033435 | 8 | 146 | 0.0 | 1.6 | 0.00 | 0.10 | 0.00 | 87 | 1014.8 |
| 20260507032927 | 8 | 146 | 0.0 | 0.0 | 0.00 | 0.10 | 0.00 | 87 | 1014.7 |
| 20260507032447 | 8 | 146 | 0.0 | 0.0 | 0.00 | 0.10 | 0.00 | 86 | 1014.7 |
| 20260507031937 | 8 | 146 | 0.0 | 1.6 | 0.00 | 0.10 | 0.00 | 87 | 1014.7 |
| 20260507031438 | 8 | 146 | 0.0 | 1.6 | 0.00 | 0.10 | 0.00 | 87 | 1014.7 |
| 20260507030927 | 8 | 146 | 0.0 | 0.0 | 0.00 | 0.10 | 0.00 | 86 | 1014.6 |
| 20260507030412 | 8 | 285 | 0.0 | 0.0 | 0.00 | 0.10 | 0.00 | 84 | 1014.6 |
| 20260507025948 | 8 | 284 | 0.0 | 0.0 | 0.00 | 0.10 | 0.00 | 83 | 1014.6 |
| 20260507025412 | 8 | 285 | 0.0 | 0.0 | 0.00 | 0.20 | 0.00 | 83 | 1014.6 |
| 20260507024947 | 8 | 285 | 0.0 | 0.0 | 0.00 | 0.20 | 0.00 | 83 | 1014.6 |
| 20260507024417 | 8 | 284 | 0.0 | 0.0 | 0.00 | 0.20 | 0.00 | 84 | 1014.6 |
| 20260507023930 | 8 | 285 | 0.0 | 0.0 | 0.00 | 0.20 | 0.00 | 85 | 1014.5 |
| 20260507023414 | 8 | 285 | 0.0 | 1.6 | 0.00 | 0.20 | 0.00 | 86 | 1014.5 |
| 20260507022419 | 8 | 284 | 0.0 | 1.6 | 0.00 | 0.20 | 0.00 | 87 | 1014.4 |
| 20260507021950 | 8 | 285 | 0.0 | 1.6 | 0.00 | 0.20 | 0.00 | 87 | 1014.5 |
| 20260507021428 | 8 | 285 | 0.0 | 0.0 | 0.00 | 0.20 | 0.00 | 87 | 1014.5 |
| 20260507020921 | 8 | 285 | 0.0 | 0.0 | 0.00 | 0.20 | 0.00 | 86 | 1014.4 |
| 20260507020418 | 8 | 285 | 0.0 | 0.0 | 0.00 | 0.20 | 0.00 | 85 | 1014.3 |
| 20260507015927 | 8 | 284 | 0.0 | 0.0 | 0.00 | 0.20 | 0.00 | 85 | 1014.3 |
| 20260507015424 | 8 | 285 | 0.0 | 0.0 | 0.00 | 0.20 | 0.00 | 85 | 1014.2 |
| 20260507014915 | 8 | 285 | 0.0 | 0.0 | 0.00 | 0.20 | 0.00 | 86 | 1014.2 |
| 20260507014449 | 8 | 285 | 0.0 | 0.0 | 0.00 | 0.20 | 0.00 | 87 | 1014.2 |
| 20260507013938 | 8 | 285 | 0.0 | 0.0 | 0.00 | 0.20 | 0.00 | 85 | 1014.1 |
| 20260507013424 | 8 | 285 | 0.0 | 0.0 | 0.00 | 0.20 | 0.00 | 84 | 1014.1 |
| 20260507012937 | 8 | 285 | 0.0 | 0.0 | 0.00 | 0.20 | 0.00 | 83 | 1014.1 |
| 20260507012458 | 8 | 285 | 0.0 | 0.0 | 0.00 | 0.20 | 0.00 | 84 | 1014.1 |
| 20260507011921 | 8 | 285 | 0.0 | 0.0 | 0.00 | 0.20 | 0.00 | 85 | 1014.1 |
| 20260507011432 | 8 | 285 | 0.0 | 0.0 | 0.00 | 0.20 | 0.00 | 85 | 1014.1 |
| 20260507010942 | 8 | 285 | 0.0 | 0.0 | 0.00 | 0.20 | 0.00 | 82 | 1014.2 |
| 20260507010428 | 8 | 285 | 0.0 | 0.0 | 0.00 | 0.20 | 0.00 | 82 | 1014.2 |
| 20260507005938 | 8 | 285 | 0.0 | 0.0 | 0.00 | 0.20 | 0.00 | 83 | 1014.1 |
| 20260507005410 | 9 | 285 | 0.0 | 0.0 | 0.00 | 0.20 | 0.00 | 83 | 1014.1 |
| 20260507004913 | 9 | 285 | 0.0 | 0.0 | 0.00 | 0.20 | 0.00 | 83 | 1014.1 |
| 20260507004421 | 9 | 285 | 0.0 | 0.0 | 0.00 | 0.20 | 0.00 | 80 | 1014.1 |
| 20260507003915 | 9 | 285 | 0.0 | 0.0 | 0.00 | 0.20 | 0.00 | 81 | 1014.1 |
| 20260507003417 | 9 | 285 | 0.0 | 0.0 | 0.00 | 0.20 | 0.00 | 80 | 1014.0 |
| 20260507002926 | 9 | 285 | 0.0 | 0.0 | 0.00 | 0.20 | 0.00 | 80 | 1014.0 |
| 20260507002420 | 9 | 285 | 0.0 | 0.0 | 0.00 | 0.20 | 0.00 | 80 | 1014.0 |
| 20260507001950 | 9 | 285 | 0.0 | 0.0 | 0.00 | 0.20 | 0.00 | 80 | 1014.0 |
| 20260507001500 | 9 | 285 | 0.0 | 0.0 | 0.00 | 0.20 | 0.00 | 80 | 1014.0 |
| 20260507000922 | 9 | 285 | 0.0 | 0.0 | 0.00 | 0.20 | 0.00 | 80 | 1013.9 |
| 20260507000458 | 9 | 285 | 0.0 | 0.0 | 0.00 | 0.20 | 0.00 | 80 | 1013.9 |
| 20260506235917 | 9 | 285 | 0.0 | 0.0 | 0.00 | 0.20 | 0.00 | 80 | 1013.9 |
| 20260506235450 | 9 | 285 | 0.0 | 0.0 | 0.00 | 0.51 | 0.00 | 80 | 1013.9 |
| 20260506234942 | 9 | 285 | 0.0 | 1.6 | 0.00 | 0.51 | 0.00 | 80 | 1013.9 |
| 20260506234423 | 9 | 285 | 0.0 | 1.6 | 0.00 | 0.51 | 0.00 | 80 | 1013.9 |
| 20260506233917 | 9 | 285 | 0.0 | 0.0 | 0.00 | 0.51 | 0.00 | 79 | 1013.8 |
| 20260506233430 | 9 | 285 | 0.0 | 0.0 | 0.00 | 0.51 | 0.00 | 79 | 1013.8 |
| 20260506232913 | 9 | 285 | 0.0 | 0.0 | 0.00 | 0.51 | 0.00 | 79 | 1013.7 |
| 20260506232427 | 9 | 285 | 0.0 | 0.0 | 0.00 | 0.51 | 0.00 | 79 | 1013.7 |
| 20260506231935 | 9 | 285 | 0.0 | 0.0 | 0.00 | 0.51 | 0.00 | 79 | 1013.7 |
| 20260506231418 | 9 | 285 | 0.0 | 0.0 | 0.00 | 0.51 | 0.00 | 79 | 1013.7 |
| 20260506230932 | 9 | 285 | 0.0 | 0.0 | 0.00 | 0.51 | 0.00 | 79 | 1013.7 |
| 20260506230439 | 9 | 285 | 0.0 | 0.0 | 0.00 | 0.51 | 0.00 | 79 | 1013.5 |
| 20260506225952 | 9 | 285 | 0.0 | 0.0 | 0.00 | 0.51 | 0.00 | 79 | 1013.5 |
| 20260506225414 | 9 | 285 | 0.0 | 0.0 | 0.00 | 0.89 | 0.00 | 79 | 1013.5 |
| 20260506224928 | 9 | 285 | 0.0 | 0.0 | 0.00 | 0.89 | 0.00 | 79 | 1013.5 |
| 20260506224426 | 9 | 285 | 0.0 | 0.0 | 0.00 | 0.89 | 0.00 | 78 | 1013.4 |
| 20260506223917 | 9 | 285 | 0.0 | 0.0 | 0.00 | 0.89 | 0.00 | 78 | 1013.4 |
| 20260506223432 | 9 | 285 | 0.0 | 0.0 | 0.00 | 0.89 | 0.00 | 78 | 1013.4 |
| 20260506222914 | 9 | 285 | 0.0 | 0.0 | 0.00 | 0.89 | 0.00 | 78 | 1013.4 |
| 20260506222429 | 9 | 285 | 0.0 | 0.0 | 0.00 | 0.89 | 0.00 | 79 | 1013.4 |
| 20260506221912 | 9 | 285 | 0.0 | 0.0 | 0.00 | 0.89 | 0.00 | 79 | 1013.4 |
| 20260506221423 | 9 | 285 | 0.0 | 0.0 | 0.00 | 0.89 | 0.00 | 80 | 1013.3 |
| 20260506220934 | 9 | 285 | 0.0 | 0.0 | 0.00 | 0.89 | 0.00 | 79 | 1013.3 |
| 20260506220437 | 9 | 285 | 0.0 | 0.0 | 0.00 | 0.89 | 0.00 | 80 | 1013.3 |
| 20260506215917 | 8 | 285 | 0.0 | 0.0 | 0.00 | 0.89 | 0.00 | 80 | 1013.3 |
| 20260506215428 | 8 | 285 | 0.0 | 0.0 | 0.00 | 1.30 | 0.18 | 80 | 1013.4 |
| 20260506214940 | 8 | 285 | 0.0 | 0.0 | 0.00 | 1.30 | 0.18 | 81 | 1013.4 |
| 20260506214413 | 8 | 285 | 0.0 | 0.0 | 0.00 | 1.30 | 0.18 | 81 | 1013.3 |
| 20260506213942 | 8 | 285 | 0.0 | 0.0 | 0.00 | 1.30 | 0.18 | 82 | 1013.3 |
| 20260506213431 | 8 | 285 | 0.0 | 0.0 | 0.00 | 1.30 | 0.18 | 81 | 1013.2 |
| 20260506212926 | 8 | 285 | 0.0 | 0.0 | 0.00 | 1.30 | 0.18 | 82 | 1013.2 |
| 20260506212411 | 8 | 285 | 0.0 | 0.0 | 0.00 | 1.30 | 0.18 | 82 | 1013.2 |
| 20260506211944 | 8 | 285 | 0.0 | 0.0 | 0.00 | 1.30 | 0.18 | 82 | 1013.2 |
| 20260506211435 | 8 | 285 | 0.0 | 0.0 | 0.00 | 1.30 | 0.18 | 82 | 1013.1 |
| 20260506210928 | 8 | 285 | 0.0 | 0.0 | 0.00 | 1.30 | 0.18 | 81 | 1013.0 |
| 20260506210434 | 8 | 285 | 0.0 | 0.0 | 0.00 | 1.30 | 0.18 | 81 | 1013.1 |
| 20260506205947 | 8 | 285 | 0.0 | 0.0 | 0.00 | 1.30 | 0.18 | 81 | 1013.0 |
| 20260506205422 | 8 | 285 | 0.0 | 0.0 | 0.00 | 1.60 | 0.18 | 81 | 1013.0 |
| 20260506204913 | 8 | 285 | 0.0 | 0.0 | 0.00 | 1.60 | 0.18 | 81 | 1013.0 |
| 20260506204445 | 8 | 285 | 0.0 | 0.0 | 0.00 | 1.60 | 0.18 | 81 | 1012.9 |
| 20260506203935 | 8 | 285 | 0.0 | 0.0 | 0.00 | 1.60 | 0.18 | 80 | 1013.0 |
| 20260506203415 | 8 | 285 | 0.0 | 0.0 | 0.00 | 1.60 | 0.18 | 80 | 1012.9 |
| 20260506202930 | 8 | 285 | 0.0 | 0.0 | 0.00 | 1.60 | 0.18 | 80 | 1012.9 |
| 20260506202412 | 8 | 285 | 0.0 | 0.0 | 0.00 | 1.60 | 0.18 | 79 | 1012.9 |
| 20260506201922 | 9 | 285 | 0.0 | 0.0 | 0.00 | 1.60 | 0.18 | 79 | 1012.8 |
| 20260506201433 | 9 | 285 | 0.0 | 1.6 | 0.00 | 1.60 | 0.18 | 78 | 1012.8 |
| 20260506200919 | 9 | 285 | 0.0 | 1.6 | 0.00 | 1.60 | 0.18 | 78 | 1012.7 |
| 20260506200423 | 10 | 285 | 0.0 | 3.2 | 0.00 | 1.60 | 0.18 | 77 | 1012.7 |
| 20260506195936 | 10 | 304 | 0.0 | 4.8 | 0.00 | 1.60 | 0.18 | 77 | 1012.7 |
| 20260506195420 | 10 | 267 | 1.6 | 6.4 | 0.00 | 1.91 | 0.18 | 76 | 1012.7 |
| 20260506194931 | 10 | 302 | 3.2 | 6.4 | 0.00 | 1.91 | 0.18 | 75 | 1012.6 |
| 20260506193927 | 10 | 337 | 1.6 | 6.4 | 0.00 | 1.91 | 0.18 | 75 | 1012.5 |
| 20260506193441 | 10 | 344 | 1.6 | 6.4 | 0.00 | 1.91 | 0.18 | 74 | 1012.5 |
| 20260506192932 | 11 | 279 | 1.6 | 6.4 | 0.00 | 1.91 | 0.18 | 74 | 1012.5 |
| 20260506192413 | 11 | 17 | 1.6 | 6.4 | 0.00 | 1.91 | 0.18 | 73 | 1012.3 |
| 20260506191927 | 11 | 307 | 1.6 | 4.8 | 0.00 | 1.91 | 0.18 | 72 | 1012.2 |
| 20260506191411 | 11 | 296 | 1.6 | 6.4 | 0.00 | 1.91 | 0.18 | 71 | 1012.2 |
| 20260506190925 | 11 | 322 | 1.6 | 3.2 | 0.00 | 1.91 | 0.18 | 72 | 1012.1 |
| 20260506190427 | 11 | 300 | 0.0 | 4.8 | 0.00 | 1.91 | 0.18 | 70 | 1012.0 |
| 20260506185939 | 11 | 269 | 1.6 | 4.8 | 0.00 | 1.91 | 0.18 | 70 | 1011.9 |
| 20260506185414 | 11 | 310 | 1.6 | 6.4 | 0.00 | 1.91 | 0.18 | 70 | 1011.8 |
| 20260506184925 | 11 | 6 | 1.6 | 6.4 | 0.00 | 1.91 | 0.18 | 70 | 1011.8 |
| 20260506184437 | 11 | 289 | 1.6 | 3.2 | 0.00 | 1.91 | 0.18 | 69 | 1011.7 |
| 20260506183921 | 11 | 273 | 0.0 | 3.2 | 0.00 | 1.91 | 0.18 | 72 | 1011.6 |
| 20260506183433 | 11 | 13 | 0.0 | 3.2 | 0.00 | 1.91 | 0.18 | 72 | 1011.5 |
| 20260506182918 | 12 | 271 | 0.0 | 4.8 | 0.00 | 1.91 | 0.18 | 72 | 1011.5 |
| 20260506182431 | 12 | 286 | 0.0 | 4.8 | 0.00 | 1.91 | 0.18 | 71 | 1011.4 |
| 20260506181942 | 12 | 268 | 0.0 | 3.2 | 0.00 | 1.91 | 0.18 | 71 | 1011.4 |
| 20260506181432 | 12 | 239 | 1.6 | 8.0 | 0.00 | 1.91 | 0.18 | 71 | 1011.2 |
| 20260506180916 | 12 | 330 | 1.6 | 8.0 | 0.00 | 1.91 | 0.18 | 72 | 1011.2 |
| 20260506180422 | 12 | 244 | 3.2 | 6.4 | 0.00 | 1.91 | 0.18 | 72 | 1011.1 |
| 20260506175932 | 12 | 269 | 1.6 | 11.3 | 0.00 | 1.91 | 0.18 | 73 | 1011.1 |
| 20260506175415 | 12 | 9 | 3.2 | 11.3 | 0.00 | 1.91 | 0.18 | 71 | 1011.0 |
| 20260506174927 | 12 | 223 | 0.0 | 3.2 | 0.00 | 1.91 | 0.18 | 72 | 1010.9 |
| 20260506174411 | 12 | 206 | 0.0 | 3.2 | 0.00 | 1.91 | 0.18 | 72 | 1010.8 |
| 20260506173925 | 12 | 206 | 0.0 | 1.6 | 0.00 | 1.91 | 0.18 | 72 | 1010.7 |
| 20260506173436 | 12 | 246 | 0.0 | 4.8 | 0.00 | 1.91 | 0.18 | 72 | 1010.7 |
| 20260506172929 | 12 | 217 | 0.0 | 3.2 | 0.00 | 1.91 | 0.18 | 72 | 1010.6 |